User: anonymous   Login
Location: Caltech
(34.1382°N, 118.1253°W)
Time: 15:13:15
(UTC-07:00)
Language:

PAYLOAD A - Orbit

View from above orbital plane
View from above orbital plane
View from above satellite
View from above satellite

Ground track
Ground track

The orbit data is extracted from the following two-line orbital elements,

1 27840U 03031A   15116.86018697  .00000107  00000-0  46546-4 0  9994
2 27840 098.2107 137.5177 0097471 318.0163 169.8293 14.38798589620818
Epoch (UTC): 26 April 2015 20:38:40
Eccentricity: 0.0097471
inclination: 98.2107°
perigee height: 693 km
apogee height: 832 km
right ascension of ascending node: 137.5177°
argument of perigee: 318.0163°
revolutions per day: 14.38798589
mean anomaly at epoch: 169.8293°
orbit number at epoch: 62081

The dashed part of the orbit path shows where the satellite is in the earth's shadow,  

DLR